This is the latest recevied weather packets stored in our database for station/object W3EJE-13. If no packets are shown the sender has not sent any weather packets the latest 10 day(s).
| Time | Temp. | Humidity | Pressure | Rain* | Wind** | Luminosity | Snow |
|---|---|---|---|---|---|---|---|
| 1777904246 | 15.56° C | 58% | 1013.8 hPa | 0 mm | - | 757 W/m² | - |
| 1777903943 | 15.56° C | 57% | 1014.1 hPa | 0 mm | - | 737 W/m² | - |
| 1777903640 | 15.56° C | 57% | 1014.1 hPa | 0 mm | - | 646 W/m² | - |
| 1777903335 | 15° C | 59% | 1013.9 hPa | 0 mm | - | 627 W/m² | - |
| 1777903033 | 14.44° C | 60% | 1014.1 hPa | 0 mm | - | 489 W/m² | - |
| 1777902729 | 13.89° C | 59% | 1014.2 hPa | 0 mm | - | 114 W/m² | - |
| 1777902426 | 14.44° C | 59% | 1014.3 hPa | 0 mm | - | 127 W/m² | - |
| 1777902122 | 14.44° C | 61% | 1014.5 hPa | 0 mm | - | 199 W/m² | - |
| 1777901821 | 14.44° C | 63% | 1014.3 hPa | 0 mm | - | 225 W/m² | - |
| 1777901518 | 13.33° C | 65% | 1014.6 hPa | 0 mm | - | 144 W/m² | - |
| 1777901216 | 12.78° C | 63% | 1014.5 hPa | 0 mm | - | 79 W/m² | - |
| 1777900913 | 12.78° C | 65% | 1014.3 hPa | 0 mm | - | 63 W/m² | - |
| 1777900610 | 12.22° C | 64% | 1014.6 hPa | 0 mm | - | 63 W/m² | - |
| 1777900307 | 12.22° C | 65% | 1014.5 hPa | 0 mm | - | 64 W/m² | - |
| 1777900004 | 12.22° C | 66% | 1014.3 hPa | 0 mm | - | 62 W/m² | - |
| 1777899700 | 12.22° C | 65% | 1014.1 hPa | 0 mm | - | 62 W/m² | - |
| 1777899398 | 12.22° C | 67% | 1014.3 hPa | 0 mm | - | 70 W/m² | - |
| 1777899096 | 11.67° C | 67% | 1014.4 hPa | 0 mm | - | 56 W/m² | - |
| 1777898792 | 11.67° C | 67% | 1014.7 hPa | 0 mm | - | 54 W/m² | - |
| 1777898490 | 11.11° C | 68% | 1014.4 hPa | 0 mm | - | 53 W/m² | - |
| 1777898188 | 11.11° C | 70% | 1014.4 hPa | 0 mm | - | 51 W/m² | - |
| 1777897885 | 10.56° C | 70% | 1014.5 hPa | 0 mm | - | 49 W/m² | - |
| 1777897581 | 10.56° C | 72% | 1014.5 hPa | 0 mm | - | 49 W/m² | - |
| 1777897276 | 10° C | 73% | 1014.5 hPa | 0 mm | - | 48 W/m² | - |
| 1777896972 | 9.44° C | 75% | 1014.5 hPa | 0 mm | - | 47 W/m² | - |
* Rain latest hour (hover to see other rain measurements)
** Current wind speed in m/s (hover to see current wind gust speed)